User: anonymous   Login
Location: Mentone
(34.5413°N, 85.5351°W)
Time: 20:10:34
(UTC-05:00)
Language:

ERBS - Orbit

View from above orbital plane
View from above orbital plane
View from above satellite
View from above satellite

Ground track
Ground track

The orbit data is extracted from the following two-line orbital elements,

1 15354U 84108B   16241.74303954  .00002551  00000-0  69366-4 0  9995
2 15354  57.0097 315.4924 0006067 271.2932  88.7427 15.41399618753076
Epoch (UTC): 28 August 2016 17:49:58
Eccentricity: 0.0006067
inclination: 57.0097°
perigee height: 438 km
apogee height: 446 km
right ascension of ascending node: 315.4924°
argument of perigee: 271.2932°
revolutions per day: 15.41399618
mean anomaly at epoch: 88.7427°
orbit number at epoch: 75307

The dashed part of the orbit path shows where the satellite is in the earth's shadow,  

DLR